When you browse on this site, cookies collect data to enhance your experience and personalize the content and advertising you see.
Visit our Privacy Policy to learn more. By continuing to use the site, you agree to this use of cookies and data.
  • In United Kingdom
  • List of Countries
  • For 7 days
  • Water Temperature
  • Weather Map
  • Weather Widgets
  • user-avatar
    Login

    Hourly Weather Escuintla

    Today, 28 May, Thursday

    Time Temperature Precipitation Wind Pressure Humidity
    00:00 +26°C° 0 mm 1 mps 729 mmHg 86%
    01:00 +26°C° 0.3 mm 1 mps 729 mmHg 86%
    02:00 +26°C° 0.3 mm 1 mps 729 mmHg 86%
    03:00 +26°C° 0.3 mm 1 mps 729 mmHg 86%
    04:00 +25°C° 0.3 mm 1 mps 729 mmHg 86%
    05:00 +25°C° 0.3 mm 1 mps 729 mmHg 87%
    06:00 +25°C° 0.3 mm 2 mps 729 mmHg 87%
    07:00 +26°C° 0 mm 1 mps 729 mmHg 85%
    08:00 +26°C° 0 mm 1 mps 729 mmHg 84%
    09:00 +27°C° 0 mm 1 mps 730 mmHg 82%
    10:00 +28°C° 0 mm 1 mps 730 mmHg 76%
    11:00 +30°C° 0 mm 1 mps 730 mmHg 70%
    12:00 +31°C° 0 mm 1 mps 730 mmHg 65%
    13:00 +31°C° 0.4 mm 1 mps 729 mmHg 70%
    14:00 +30°C° 0.4 mm 1 mps 729 mmHg 74%
    15:00 +29°C° 0.4 mm 1 mps 728 mmHg 79%
    16:00 +28°C° 0.5 mm 1 mps 728 mmHg 82%
    17:00 +28°C° 0.5 mm 1 mps 728 mmHg 85%
    18:00 +25°C° 0.5 mm 0 mps 728 mmHg 88%
    19:00 +27°C° 0.1 mm 1 mps 729 mmHg 87%
    20:00 +26°C° 0.1 mm 1 mps 729 mmHg 87%
    21:00 +26°C° 0.1 mm 1 mps 729 mmHg 86%
    22:00 +26°C° 0 mm 1 mps 729 mmHg 86%
    23:00 +26°C° 0 mm 1 mps 730 mmHg 85%

    Tomorrow, 29 May, Friday

    Time Temperature Precipitation Wind Pressure Humidity
    00:00 +26°C° 0 mm 1 mps 730 mmHg 85%
    01:00 +25°C° 0.4 mm 1 mps 729 mmHg 85%
    02:00 +25°C° 0.4 mm 1 mps 729 mmHg 85%
    03:00 +25°C° 0.4 mm 2 mps 728 mmHg 86%
    04:00 +25°C° 0.3 mm 1 mps 729 mmHg 86%
    05:00 +25°C° 0.3 mm 1 mps 729 mmHg 87%
    06:00 +25°C° 0.3 mm 1 mps 729 mmHg 87%
    07:00 +26°C° 0 mm 1 mps 729 mmHg 85%
    08:00 +26°C° 0 mm 1 mps 730 mmHg 83%
    09:00 +25°C° 0 mm 0 mps 730 mmHg 81%
    10:00 +29°C° 0.3 mm 1 mps 730 mmHg 77%
    11:00 +30°C° 0.3 mm 1 mps 729 mmHg 73%
    12:00 +31°C° 0.3 mm 1 mps 729 mmHg 69%
    13:00 +31°C° 0.9 mm 1 mps 728 mmHg 70%
    14:00 +31°C° 0.9 mm 1 mps 728 mmHg 71%
    15:00 +31°C° 0.9 mm 1 mps 727 mmHg 72%
    16:00 +30°C° 0.8 mm 1 mps 727 mmHg 78%
    17:00 +28°C° 0.8 mm 1 mps 727 mmHg 83%
    18:00 +25°C° 0.8 mm 0 mps 727 mmHg 89%
    19:00 +27°C° 0.4 mm 1 mps 728 mmHg 89%
    20:00 +26°C° 0.4 mm 1 mps 728 mmHg 89%
    21:00 +26°C° 0.4 mm 1 mps 729 mmHg 89%
    22:00 +25°C° 0.1 mm 1 mps 729 mmHg 89%
    23:00 +25°C° 0.1 mm 1 mps 729 mmHg 89%

    Day after tomorrow, 30 May, Saturday

    Time Temperature Precipitation Wind Pressure Humidity
    00:00 +25°C° 0.1 mm 1 mps 729 mmHg 89%
    01:00 +25°C° 0 mm 2 mps 728 mmHg 86%
    02:00 +25°C° 0 mm 2 mps 728 mmHg 86%
    03:00 +24°C° 0 mm 2 mps 727 mmHg 85%
    04:00 +25°C° 0 mm 2 mps 727 mmHg 84%
    05:00 +25°C° 0 mm 2 mps 727 mmHg 83%
    06:00 +25°C° 0 mm 2 mps 727 mmHg 81%
    07:00 +26°C° 0.1 mm 2 mps 728 mmHg 80%
    08:00 +26°C° 0.1 mm 1 mps 728 mmHg 79%
    09:00 +27°C° 0.1 mm 1 mps 729 mmHg 77%
    10:00 +29°C° 0 mm 1 mps 728 mmHg 71%
    11:00 +31°C° 0 mm 1 mps 728 mmHg 64%
    12:00 +32°C° 0 mm 1 mps 728 mmHg 58%
    13:00 +32°C° 0.4 mm 1 mps 727 mmHg 64%
    14:00 +31°C° 0.4 mm 2 mps 726 mmHg 70%
    15:00 +30°C° 0.4 mm 2 mps 725 mmHg 76%
    16:00 +29°C° 0.4 mm 2 mps 726 mmHg 80%
    17:00 +28°C° 0.4 mm 2 mps 726 mmHg 83%
    18:00 +27°C° 0.4 mm 2 mps 726 mmHg 87%
    19:00 +27°C° 0.1 mm 2 mps 726 mmHg 86%
    20:00 +26°C° 0.1 mm 2 mps 727 mmHg 85%
    21:00 +26°C° 0.1 mm 2 mps 727 mmHg 84%
    22:00 +26°C° 0.1 mm 2 mps 727 mmHg 83%
    23:00 +26°C° 0.1 mm 2 mps 727 mmHg 82%

    31 May, Sunday

    Time Temperature Precipitation Wind Pressure Humidity
    00:00 +26°C° 0.1 mm 2 mps 727 mmHg 81%
    01:00 +26°C° 0.4 mm 3 mps 726 mmHg 83%
    02:00 +25°C° 0.4 mm 3 mps 725 mmHg 84%
    03:00 +25°C° 0.4 mm 3 mps 725 mmHg 85%
    04:00 +25°C° 3.6 mm 3 mps 724 mmHg 88%
    05:00 +24°C° 3.6 mm 3 mps 724 mmHg 91%
    06:00 +24°C° 3.6 mm 2 mps 724 mmHg 94%
    07:00 +24°C° 8.2 mm 3 mps 724 mmHg 94%
    08:00 +24°C° 8.2 mm 3 mps 724 mmHg 95%
    09:00 +24°C° 8.2 mm 3 mps 725 mmHg 95%
    10:00 +23°C° 12.9 mm 4 mps 724 mmHg 95%
    11:00 +23°C° 12.9 mm 4 mps 724 mmHg 94%
    12:00 +23°C° 12.9 mm 4 mps 723 mmHg 94%
    13:00 +23°C° 12.2 mm 4 mps 723 mmHg 95%
    14:00 +24°C° 12.2 mm 3 mps 723 mmHg 96%
    15:00 +24°C° 12.2 mm 3 mps 723 mmHg 97%
    16:00 +24°C° 10.9 mm 2 mps 723 mmHg 97%
    17:00 +24°C° 10.9 mm 2 mps 724 mmHg 98%
    18:00 +24°C° 10.9 mm 2 mps 724 mmHg 99%
    19:00 +24°C° 2.3 mm 1 mps 725 mmHg 98%
    20:00 +24°C° 2.3 mm 1 mps 725 mmHg 98%
    21:00 +24°C° 2.3 mm 1 mps 726 mmHg 98%
    22:00 +24°C° 0.1 mm 1 mps 726 mmHg 96%
    23:00 +24°C° 0.1 mm 1 mps 726 mmHg 95%

    1 June, Monday

    Time Temperature Precipitation Wind Pressure Humidity
    00:00 +24°C° 0.1 mm 1 mps 726 mmHg 93%
    01:00 +24°C° 0 mm 1 mps 726 mmHg 93%
    02:00 +24°C° 0 mm 1 mps 725 mmHg 93%
    03:00 +24°C° 0 mm 1 mps 725 mmHg 92%
    04:00 +24°C° 0 mm 1 mps 725 mmHg 92%
    05:00 +24°C° 0 mm 1 mps 726 mmHg 91%
    06:00 +24°C° 0 mm 2 mps 726 mmHg 91%
    07:00 +25°C° 0.5 mm 2 mps 726 mmHg 89%
    08:00 +26°C° 0.5 mm 2 mps 727 mmHg 87%
    09:00 +28°C° 0.5 mm 3 mps 728 mmHg 85%
    10:00 +27°C° 9.2 mm 3 mps 728 mmHg 89%
    11:00 +26°C° 9.2 mm 3 mps 727 mmHg 94%
    12:00 +25°C° 9.2 mm 3 mps 727 mmHg 98%
    13:00 +25°C° 4.7 mm 2 mps 727 mmHg 97%
    14:00 +24°C° 4.7 mm 2 mps 726 mmHg 96%
    15:00 +24°C° 4.7 mm 2 mps 726 mmHg 96%
    16:00 +24°C° 2.7 mm 2 mps 726 mmHg 96%
    17:00 +24°C° 2.7 mm 2 mps 726 mmHg 96%
    18:00 +24°C° 2.7 mm 2 mps 726 mmHg 96%
    19:00 +24°C° 4.5 mm 2 mps 726 mmHg 96%
    20:00 +24°C° 4.5 mm 2 mps 727 mmHg 95%
    21:00 +25°C° 4.5 mm 2 mps 727 mmHg 95%
    22:00 +24°C° 10.1 mm 2 mps 727 mmHg 95%
    23:00 +24°C° 10.1 mm 3 mps 727 mmHg 96%

    2 June, Tuesday

    Time Temperature Precipitation Wind Pressure Humidity
    00:00 +24°C° 10.1 mm 3 mps 727 mmHg 97%
    01:00 +24°C° 10 mm 3 mps 727 mmHg 97%
    02:00 +24°C° 10 mm 2 mps 726 mmHg 97%
    03:00 +24°C° 10 mm 2 mps 725 mmHg 97%
    04:00 +24°C° 15.9 mm 2 mps 726 mmHg 97%
    05:00 +24°C° 15.9 mm 2 mps 726 mmHg 97%
    06:00 +24°C° 15.9 mm 2 mps 726 mmHg 97%
    07:00 +24°C° 15.4 mm 2 mps 726 mmHg 97%
    08:00 +24°C° 15.4 mm 2 mps 727 mmHg 97%
    09:00 +24°C° 15.4 mm 1 mps 727 mmHg 97%
    10:00 +25°C° 7.1 mm 1 mps 727 mmHg 96%
    11:00 +25°C° 7.1 mm 1 mps 727 mmHg 95%
    12:00 +26°C° 7.1 mm 1 mps 727 mmHg 94%
    13:00 +25°C° 2 mm 1 mps 726 mmHg 94%
    14:00 +25°C° 2 mm 1 mps 726 mmHg 94%
    15:00 +25°C° 2 mm 1 mps 726 mmHg 94%
    16:00 +25°C° 0.8 mm 1 mps 726 mmHg 94%
    17:00 +25°C° 0.8 mm 1 mps 726 mmHg 94%
    18:00 +24°C° 0.8 mm 1 mps 726 mmHg 94%
    19:00 +24°C° 0.1 mm 1 mps 727 mmHg 93%
    20:00 +24°C° 0.1 mm 1 mps 727 mmHg 93%
    21:00 +24°C° 0.1 mm 1 mps 727 mmHg 93%
    22:00 +24°C° 0.2 mm 1 mps 727 mmHg 93%
    23:00 +24°C° 0.2 mm 1 mps 727 mmHg 93%
    Show more